Location: Oundoundou
(13.6667°N, 13.5500°W)
Time: 03:11:14
(UTC+00:00)

Daily predictions for brighter satellites

Satellite Brightness Start Highest point End
(mag) Time Altitude Azimuth Time Altitude Azimuth Time Altitude Azimuth
NOSS 3-2 (A) 4.4 04:12:17 52° NNE 04:13:53 61° ENE 04:21:56 10° SE
CZ-3B DEB 3.4 04:22:20 64° S 04:23:59 80° ESE 04:44:05 10° NE
ADEOS Rocket 3.2 04:24:34 10° NNE 04:30:41 67° E 04:30:41 67° E
ADEOS II 3.2 04:28:03 10° NNE 04:32:58 41° E 04:36:16 19° SSE
Palapa 6 Rocket 4.1 04:40:54 49° E 04:40:54 49° E 04:44:22 10° ESE
Cosmos 1459 Rocket 4.3 04:40:36 10° N 04:46:50 63° E 04:52:57 10° SSE
Cosmos 2333 Rocket 4.3 04:55:15 13° S 04:55:15 13° S 04:55:45 10° S
Meteor 2-15 Rocket 4.3 04:47:22 10° S 04:53:27 84° E 04:59:31 10° N
OTV 4 3.9 04:55:45 10° ENE 04:55:45 10° ENE 04:55:47 10° ENE
NOSS 3-2 (C) 4.0 04:48:47 23° NNW 04:54:23 87° WSW 05:02:36 10° SSE
CZ-2C R/B 4.4 04:49:58 10° SSE 04:53:11 46° SE 04:53:11 46° SE
ATLAS 5 CENTAUR R/B 2.4 04:54:08 46° NNW 04:56:16 87° WSW 05:02:54 10° SSE
Cosmos 2058 Rocket 3.6 05:03:43 47° SSE 05:03:43 47° SSE 05:06:55 10° S
Cosmos 2237 Rocket 3.6 05:08:17 23° SSW 05:08:17 23° SSW 05:10:30 10° S
Meteor 1-15 Rocket 4.1 05:02:50 10° N 05:08:28 89° ENE 05:14:12 10° S
Cosmos 1125 Rocket 3.5 05:05:08 16° S 05:09:21 81° ESE 05:14:32 10° NNE
Cosmos 1340 3.7 05:05:46 10° SSE 05:09:24 46° E 05:13:01 10° NNE
Cosmos 972 Rocket 4.3 05:10:56 48° NW 05:10:56 48° NW 05:15:43 10° N
BREEZE-M DEB (TANK) 2.3 05:14:25 58° NNE 05:14:25 58° NNE 05:18:31 10° NE
Okean-O 2.5 05:12:13 10° N 05:16:31 61° WNW 05:16:31 61° WNW
Aureole 2 Rocket 3.1 05:16:52 42° E 05:16:52 42° E 05:19:17 10° SSE
Meteor 1-31 Rocket 3.0 05:16:30 10° NNE 05:20:25 69° E 05:24:20 10° S
GPS 2-15 Rocket1 3.6 05:21:44 37° NW 05:23:03 49° N 05:27:35 10° E
Cosmos 1066 Rocket 4.1 05:19:29 10° S 05:25:01 88° E 05:30:43 10° N
SL-16 R/B 2.1 05:22:19 10° NNW 05:27:58 74° WSW 05:33:36 10° S
Cosmos 2098 Rocket 3.7 05:25:06 10° N 05:30:19 83° W 05:36:56 10° S
Cosmos 292 Rocket 4.1 05:30:20 34° WNW 05:31:27 40° W 05:35:57 10° S
Feng Yun 1-1 Rocket 4.4 05:26:12 10° N 05:31:48 53° WNW 05:37:30 10° SSW
CZ-4B R/B 3.9 05:43:18 10° N 05:46:51 45° WNW 05:50:19 10° SSW
Hubble Space Telescope 1.4 05:46:17 26° W 05:48:02 39° SSW 05:51:55 10° SE
NOAA 6 4.0 05:44:43 10° N 05:49:51 70° WNW 05:54:59 10° SSW
MOS 1 Rocket 4.0 05:51:18 10° N 05:56:02 38° WNW 06:00:58 10° SW
Cosmos 192 4.2 05:52:12 10° NNW 05:57:07 78° WSW 06:01:59 10° S
Cosmos 2228 4.0 05:54:10 10° NW 05:57:39 24° W 06:01:06 10° SW
GPS 2-18 Rocket1 4.4 05:56:30 13° NW 05:59:33 32° N 06:03:09 10° ENE
SL-24 R/B 3.6 05:56:00 10° N 05:59:40 59° WNW 06:03:15 10° SSW
GPS 2-17 Rocket1 3.9 05:59:06 15° WNW 06:02:17 35° N 06:06:17 10° ENE
Cosmos 2263 Rocket 2.5 05:57:09 10° SW 06:02:23 42° WNW 06:07:37 10° N
USA 215 3.3 05:56:24 10° SSE 06:02:53 65° SW 06:09:23 10° NW
Cosmos 1725 Rocket 4.0 05:57:19 10° NNW 06:03:24 57° W 06:09:27 10° S
CZ-3C R/B 3.0 06:00:40 10° SW 06:03:52 38° SE 06:16:51 10° ENE
H-2A ROCKET BODY 3.9 06:05:44 10° SW 06:10:51 68° SE 06:39:12 10° ENE
ADEOS II 3.7 06:09:49 10° NW 06:12:17 13° WNW 06:14:46 10° WSW
Meteor 2-17 Rocket 4.5 06:08:27 10° NNW 06:14:29 62° W 06:20:32 10° S
Cosmos 1603 3.7 06:10:12 10° NNW 06:15:52 82° WSW 06:21:29 10° SSE
Cosmos 1812 Rocket 4.0 06:12:02 10° NNW 06:16:14 41° W 06:20:26 10° SSW
Meteor 1-21 4.5 06:15:51 10° SSW 06:21:18 48° W 06:26:51 10° N
USA 129 2.5 06:19:53 10° SSW 06:21:42 28° WSW 06:23:27 10° NW
GPS 2-14 Rocket1 4.1 06:19:37 10° WNW 06:23:19 30° N 06:26:57 10° ENE
CENTAUR R/B 3.2 06:21:39 10° NNW 06:29:53 69° WSW 06:38:03 10° SSE
ARIANE 5 R/B 4.3 06:30:05 10° WSW 06:54:47 39° S 06:59:33 10° ESE
